User: anonymous   Login
Location: Caltech
(34.1382°N, 118.1253°W)
Time: 18:48:30
(UTC-07:00)
Language:

SPOT 1/Viking Rocket - Orbit

View from above orbital plane
View from above orbital plane
View from above satellite
View from above satellite

Ground track
Ground track

The orbit data is extracted from the following two-line orbital elements,

1 16615U 86019C   17291.30237951 +.00000041 +00000-0 +31723-4 0  9998
2 16615 098.5996 357.4777 0012484 047.4325 000.2619 14.31677155657030
Epoch (UTC): 18 October 2017 07:15:25
Eccentricity: 0.0012484
inclination: 98.5996°
perigee height: 777 km
apogee height: 795 km
right ascension of ascending node: 357.4777°
argument of perigee: 47.4325°
revolutions per day: 14.31677155
mean anomaly at epoch: 0.2619°
orbit number at epoch: 65703

The dashed part of the orbit path shows where the satellite is in the earth's shadow,  

DLR